Home   Weather   Guilin   Past weeks

Flag for China Past Weather in Guilin, Guangxi, China — Yesterday and Last 2 Weeks

Now
73 °F

More clouds than sun.


Feels Like: 77 °F
Forecast: 65 / 82 °F
Wind: 6 mph from Northeast

Location: Guilin Airport

Current Time: Sep 30, 2016 at 4:21:00 PM

Latest Report: Sep 30, 2016 at 3:00 PM


Visibility: N/A

Pressure: 29.86 "Hg

Humidity: 57%

Dew Point: 57 °F

Location of GuilinLocation

Past Weather in Guilin — Graph

°F

Guilin Temperature Yesterday

Maximum temperature yesterday: 79 °F (at 1:00 PM)
Minimum temperature yesterday: 66 °F (at 11:00 PM)
Average temperature yesterday: 73 °F

High & Low Weather Summary for the Past Weeks

 TemperatureHumidityPressure
High97 °F (Sep 27, 2:00 PM)100% (Sep 26, 4:00 AM)30.12 "Hg (Sep 26, 4:00 AM)
Low64 °F (Sep 23, 6:00 AM)35% (Sep 22, 4:00 PM)29.65 "Hg (Sep 27, 5:00 PM)
Average78 °F71%29.86 "Hg
* Reported Sep 15 3:00 PM — Sep 30 3:00 PM, Guilin, Weather by CustomWeather, © 2016

Note: Actual official high and low records may vary slightly from our data, if they occured in-between our weather recording intervals... More about our weather records

Advertising

Guilin Weather History for the Previous 24 Hours

Scroll right to see more
 ConditionsComfort  
Time TempWeatherWind HumidityBarometerVisibility
3:00 PM
Fri, Sep 30
73 °FMore clouds than sun.6 mph57%29.86 "HgN/A
2:00 PM72 °FMore clouds than sun.6 mph61%29.86 "HgN/A
1:00 PM72 °FMore clouds than sun.10 mph61%29.89 "HgN/A
12:00 PM72 °FBroken clouds.10 mph61%29.89 "HgN/A
11:00 AM70 °FBroken clouds.10 mph60%29.92 "HgN/A
10:00 AM70 °FBroken clouds.10 mph60%29.92 "HgN/A
9:00 AM68 °FBroken clouds.8 mph69%29.92 "HgN/A
8:00 AM66 °FPartly sunny.6 mph73%29.89 "HgN/A
7:00 AM64 °FPartly sunny.3 mph78%29.89 "HgN/A
6:00 AM64 °FOvercast.6 mph78%29.89 "HgN/A
5:00 AM64 °FMostly cloudy.3 mph78%29.89 "HgN/A
4:00 AM66 °FMostly cloudy.6 mph73%29.89 "HgN/A
3:00 AM66 °FMostly cloudy.6 mph73%29.89 "HgN/A
2:00 AM66 °FMostly cloudy.6 mph73%29.89 "HgN/A
1:00 AM66 °FMostly cloudy.8 mph73%29.89 "HgN/A
12:00 AM66 °FOvercast.8 mph73%29.89 "HgN/A
11:00 PM
Thu, Sep 29
66 °FOvercast.6 mph78%29.89 "HgN/A
10:00 PM68 °FOvercast.8 mph73%29.89 "HgN/A
9:00 PM68 °FOvercast.10 mph73%29.89 "HgN/A
8:00 PM70 °FOvercast.13 mph69%29.86 "HgN/A
7:00 PM70 °FOvercast.10 mph69%29.83 "HgN/A
6:00 PM72 °FOvercast.10 mph69%29.80 "HgN/A
5:00 PM73 °FOvercast.8 mph65%29.80 "HgN/A
4:00 PM75 °FMore clouds than sun.8 mph61%29.80 "HgN/A
Weather by CustomWeather, © 2016

See weather overviewHow to use our weather pages